User: anonymous   Login
Location: Unspecified
(0.0000°N, 0.0000°E)
Time: 04:03:37
(UTC+00:00)
Language:

TECSAR - Orbit

View from above orbital plane
View from above orbital plane
View from above satellite
View from above satellite

Ground track
Ground track

The orbit data is extracted from the following two-line orbital elements,

1 32476U 08002A   16113.06635330 0.00000000  00000-0  00000-0 0    03
2 32476  41.0026  78.6282 0004999 218.1296 141.8698 15.15821250    07
Epoch (UTC): 22 April 2016 01:35:32
Eccentricity: 0.0004999
inclination: 41.0026°
perigee height: 515 km
apogee height: 522 km
right ascension of ascending node: 78.6282°
argument of perigee: 218.1296°
revolutions per day: 15.15821250
mean anomaly at epoch: 141.8698°
orbit number at epoch: 0

The dashed part of the orbit path shows where the satellite is in the earth's shadow,  

DLR